Location: Ferques
(50.8300°N, 1.7599°E)
Time: 14:09:56
(UTC+00:00)

MOS 1 - Pass Details

Date: 19 May 2025
Orbit: 876 x 890 km, 98.9° (Epoch: 17 June)

Event Time Altitude Azimuth Distance (km) Brightness Sun altitude
Rises 20:10:19 0° 164° (SSE) 3,488 6.9 -4.5°
Reaches altitude 10° 20:12:42 10° 165° (SSE) 2,552 6.2 -4.7°
Maximum altitude 20:18:25 85° 252° (WSW) 900 4.4 -5.4°
Drops below altitude 10° 20:24:09 10° 344° (NNW) 2,565 7.8 -6.1°
Sets 20:26:34 0° 345° (NNW) 3,508 8.5 -6.4°
